EZY12HT EGPH-EGSS

Flight info

Callsign EZY12HT
Flight time N/A
Altitude 39000
Route GOSAM P600 FENIK L612 NAVSO DCT AKOMU DCT VAMEB UL612 LISTO
Aircraft A319/M-SDE3FGHIRWY/LB1

Departure

Time 2026-04-26 21:35
Airport Edinburgh Airport (EGPH)

Arrival

Time N/A
Airport London Stansted Airport (EGSS)
Time Latitude Longitude Altitude Speed Heading
2026-04-26 20:52 55.94809 -3.35754 107 ft 0 kts 208°
2026-04-26 21:25 55.94810 -3.35753 107 ft 2 kts 208°
2026-04-26 21:25 55.94829 -3.35733 106 ft 3 kts 211°
2026-04-26 21:25 55.94850 -3.35710 106 ft 3 kts 218°
2026-04-26 21:26 55.94866 -3.35682 106 ft 3 kts 243°
2026-04-26 21:26 55.94870 -3.35653 106 ft 0 kts 298°
2026-04-26 21:28 55.94881 -3.35691 107 ft 9 kts 298°
2026-04-26 21:29 55.94917 -3.35807 106 ft 14 kts 301°
2026-04-26 21:29 55.95001 -3.35850 106 ft 14 kts 21°
2026-04-26 21:29 55.95101 -3.35821 106 ft 12 kts 313°
2026-04-26 21:29 55.95172 -3.35955 107 ft 10 kts 327°
2026-04-26 21:30 55.95238 -3.35977 106 ft 12 kts 38°
2026-04-26 21:30 55.95294 -3.35812 107 ft 19 kts 59°
2026-04-26 21:30 55.95369 -3.35592 107 ft 21 kts 58°
2026-04-26 21:30 55.95445 -3.35412 107 ft 16 kts 25°
2026-04-26 21:31 55.95491 -3.35431 108 ft 0 kts 328°
2026-04-26 21:34 55.95492 -3.35432 108 ft 2 kts 328°
2026-04-26 21:34 55.95524 -3.35468 108 ft 10 kts 329°
2026-04-26 21:34 55.95561 -3.35598 108 ft 16 kts 244°
2026-04-26 21:34 55.95509 -3.35750 107 ft 13 kts 239°
2026-04-26 21:35 55.95366 -3.36173 104 ft 87 kts 239°
2026-04-26 21:35 55.94901 -3.37548 141 ft 165 kts 240°
2026-04-26 21:35 55.94271 -3.39393 892 ft 176 kts 239°
2026-04-26 21:35 55.93633 -3.41238 1863 ft 179 kts 240°
2026-04-26 21:36 55.92937 -3.43255 2510 ft 204 kts 240°
2026-04-26 21:36 55.92429 -3.44729 3019 ft 219 kts 240°
2026-04-26 21:36 55.91276 -3.48070 4340 ft 249 kts 239°
2026-04-26 21:36 55.90455 -3.50856 5416 ft 260 kts 253°
2026-04-26 21:37 55.90075 -3.54023 5810 ft 260 kts 260°
2026-04-26 21:37 55.89763 -3.57196 5976 ft 260 kts 261°
2026-04-26 21:37 55.89463 -3.60371 6004 ft 260 kts 261°
2026-04-26 21:37 55.89163 -3.63540 6006 ft 259 kts 261°
2026-04-26 21:38 55.88858 -3.66707 6003 ft 259 kts 261°
2026-04-26 21:38 55.88544 -3.69872 6018 ft 260 kts 260°
2026-04-26 21:38 55.88025 -3.72953 6016 ft 260 kts 250°
2026-04-26 21:38 55.87379 -3.75940 6002 ft 260 kts 249°
2026-04-26 21:39 55.86720 -3.78927 6000 ft 260 kts 249°
2026-04-26 21:39 55.86044 -3.81910 6000 ft 260 kts 246°
2026-04-26 21:39 55.84938 -3.84456 6059 ft 266 kts 220°
2026-04-26 21:39 55.83246 -3.85862 7197 ft 273 kts 195°
2026-04-26 21:40 55.81329 -3.86077 8590 ft 279 kts 181°
2026-04-26 21:40 55.79376 -3.85984 9943 ft 284 kts 180°
2026-04-26 21:40 55.77355 -3.85830 10889 ft 302 kts 180°
2026-04-26 21:40 55.75168 -3.85645 11522 ft 327 kts 180°
2026-04-26 21:41 55.72844 -3.85439 12419 ft 340 kts 180°
2026-04-26 21:41 55.70458 -3.85224 13488 ft 347 kts 179°
2026-04-26 21:41 55.68056 -3.84339 14483 ft 360 kts 163°
2026-04-26 21:41 55.65701 -3.82747 15446 ft 365 kts 161°
2026-04-26 21:42 55.63316 -3.81098 16404 ft 371 kts 162°
2026-04-26 21:42 55.60926 -3.79437 17337 ft 377 kts 162°
2026-04-26 21:42 55.58463 -3.77726 18272 ft 383 kts 162°
2026-04-26 21:42 55.55966 -3.75994 19124 ft 389 kts 162°
2026-04-26 21:43 55.53429 -3.74242 19813 ft 399 kts 162°
2026-04-26 21:43 55.50728 -3.72394 19976 ft 422 kts 162°
2026-04-26 21:43 55.47967 -3.70509 20254 ft 438 kts 162°
2026-04-26 21:43 55.45109 -3.68551 20802 ft 444 kts 162°
2026-04-26 21:44 55.42213 -3.66566 21408 ft 448 kts 162°
2026-04-26 21:44 55.39296 -3.64570 22030 ft 452 kts 162°
2026-04-26 21:44 55.36350 -3.62559 22653 ft 456 kts 162°
2026-04-26 21:44 55.33379 -3.60538 23255 ft 460 kts 162°
2026-04-26 21:45 55.30385 -3.58506 23843 ft 463 kts 162°
2026-04-26 21:45 55.27371 -3.56460 24324 ft 466 kts 162°
2026-04-26 21:45 55.24338 -3.54402 24825 ft 469 kts 162°
2026-04-26 21:45 55.21290 -3.52337 25328 ft 471 kts 162°
2026-04-26 21:46 55.18224 -3.50269 25812 ft 473 kts 163°
2026-04-26 21:46 55.15147 -3.48199 26290 ft 475 kts 163°
2026-04-26 21:46 55.12059 -3.46122 26806 ft 476 kts 163°
2026-04-26 21:46 55.08979 -3.44050 27524 ft 472 kts 163°
2026-04-26 21:47 55.05924 -3.42000 28246 ft 469 kts 163°
2026-04-26 21:47 55.02886 -3.39970 29006 ft 466 kts 164°
2026-04-26 21:47 54.99873 -3.37959 29792 ft 462 kts 164°
2026-04-26 21:47 54.96883 -3.35961 30568 ft 459 kts 164°
2026-04-26 21:48 54.93903 -3.33972 31204 ft 457 kts 164°
2026-04-26 21:48 54.90932 -3.31995 31810 ft 456 kts 164°
2026-04-26 21:48 54.88973 -3.30694 32215 ft 456 kts 164°
2026-04-26 21:48 54.86009 -3.28733 32834 ft 455 kts 165°
2026-04-26 21:49 54.83052 -3.26779 33472 ft 454 kts 165°
2026-04-26 21:49 54.80099 -3.24831 34131 ft 453 kts 165°
2026-04-26 21:49 54.77157 -3.22891 34700 ft 452 kts 164°
2026-04-26 21:49 54.74215 -3.20952 35219 ft 453 kts 164°
2026-04-26 21:50 54.71270 -3.19010 35719 ft 454 kts 164°
2026-04-26 21:50 54.68314 -3.17066 36210 ft 455 kts 164°
2026-04-26 21:50 54.65357 -3.15127 36701 ft 455 kts 163°
2026-04-26 21:50 54.62391 -3.13186 37188 ft 456 kts 163°
2026-04-26 21:51 54.59420 -3.11245 37648 ft 457 kts 163°
2026-04-26 21:51 54.56439 -3.09302 38087 ft 458 kts 163°
2026-04-26 21:51 54.53455 -3.07359 38493 ft 460 kts 163°
2026-04-26 21:51 54.50467 -3.05413 38930 ft 461 kts 163°
2026-04-26 21:52 54.47456 -3.03455 39209 ft 463 kts 163°
2026-04-26 21:52 54.44440 -3.01501 39287 ft 464 kts 163°
2026-04-26 21:52 54.38406 -2.97597 39305 ft 464 kts 163°
2026-04-26 21:53 54.32352 -2.93685 39301 ft 464 kts 163°
2026-04-26 21:53 54.26307 -2.89788 39304 ft 464 kts 163°
2026-04-26 21:54 54.20262 -2.85912 39301 ft 464 kts 163°
2026-04-26 21:54 54.14212 -2.82050 39305 ft 464 kts 163°
2026-04-26 21:55 54.08158 -2.78197 39305 ft 465 kts 163°
2026-04-26 21:55 54.02099 -2.74360 39308 ft 465 kts 163°
2026-04-26 21:56 53.96036 -2.70515 39315 ft 465 kts 163°
2026-04-26 21:56 53.89968 -2.66672 39316 ft 465 kts 163°
2026-04-26 21:57 53.83900 -2.62853 39318 ft 465 kts 163°
2026-04-26 21:57 53.77933 -2.58536 39321 ft 468 kts 156°
2026-04-26 21:58 53.72142 -2.53492 39321 ft 468 kts 156°
2026-04-26 21:58 53.66359 -2.48425 39321 ft 468 kts 156°
2026-04-26 21:59 53.60622 -2.43422 39312 ft 467 kts 156°
2026-04-26 21:59 53.54842 -2.38411 39312 ft 467 kts 156°
2026-04-26 22:00 53.49058 -2.33419 39318 ft 467 kts 156°
2026-04-26 22:00 53.43277 -2.28436 39314 ft 467 kts 156°
2026-04-26 22:01 53.37496 -2.23469 39314 ft 467 kts 156°
2026-04-26 22:01 53.31717 -2.18524 39312 ft 466 kts 156°
2026-04-26 22:02 53.25947 -2.13603 39099 ft 464 kts 156°
2026-04-26 22:02 53.23078 -2.11153 38386 ft 462 kts 157°
2026-04-26 22:02 53.20217 -2.08710 37639 ft 461 kts 157°
2026-04-26 22:03 53.17365 -2.06285 36854 ft 459 kts 158°
2026-04-26 22:03 53.14516 -2.03876 35905 ft 461 kts 158°
2026-04-26 22:03 53.11648 -2.01453 34986 ft 462 kts 159°
2026-04-26 22:03 53.08788 -1.99035 34063 ft 461 kts 159°
2026-04-26 22:04 53.05935 -1.96625 33048 ft 459 kts 158°
2026-04-26 22:04 53.03093 -1.94226 32075 ft 457 kts 158°
2026-04-26 22:04 53.00266 -1.91841 31131 ft 455 kts 158°
2026-04-26 22:04 52.97447 -1.89472 30188 ft 455 kts 158°
2026-04-26 22:05 52.94644 -1.87003 29141 ft 460 kts 152°
2026-04-26 22:05 52.92140 -1.83630 27972 ft 466 kts 141°
2026-04-26 22:05 52.89779 -1.79918 26446 ft 470 kts 139°
2026-04-26 22:05 52.87380 -1.76076 24946 ft 477 kts 139°
2026-04-26 22:06 52.84992 -1.72217 24128 ft 480 kts 138°
2026-04-26 22:06 52.82606 -1.68365 23689 ft 480 kts 138°
2026-04-26 22:06 52.80243 -1.64574 23440 ft 479 kts 138°
2026-04-26 22:06 52.77851 -1.60761 23248 ft 478 kts 138°
2026-04-26 22:07 52.75445 -1.56947 23287 ft 479 kts 139°
2026-04-26 22:07 52.73041 -1.53149 23275 ft 479 kts 139°
2026-04-26 22:07 52.70630 -1.49351 23274 ft 479 kts 139°
2026-04-26 22:07 52.68217 -1.45546 23271 ft 480 kts 139°
2026-04-26 22:08 52.65809 -1.41746 23272 ft 480 kts 139°
2026-04-26 22:08 52.63396 -1.37945 23273 ft 480 kts 139°
2026-04-26 22:08 52.60980 -1.34148 23276 ft 481 kts 139°
2026-04-26 22:08 52.58558 -1.30348 23273 ft 481 kts 139°
2026-04-26 22:09 52.56136 -1.26554 23273 ft 481 kts 139°
2026-04-26 22:09 52.53716 -1.22767 23276 ft 481 kts 139°
2026-04-26 22:09 52.51295 -1.18980 23195 ft 481 kts 139°
2026-04-26 22:09 52.48873 -1.15202 22796 ft 479 kts 139°
2026-04-26 22:10 52.46465 -1.11458 22402 ft 473 kts 139°
2026-04-26 22:10 52.44132 -1.07837 22008 ft 452 kts 139°
2026-04-26 22:10 52.41881 -1.04345 21283 ft 441 kts 139°
2026-04-26 22:10 52.39679 -1.00930 20485 ft 434 kts 139°
2026-04-26 22:11 52.37494 -0.97547 19703 ft 429 kts 139°
2026-04-26 22:11 52.35337 -0.94218 18933 ft 425 kts 139°
2026-04-26 22:11 52.33183 -0.90902 17865 ft 426 kts 139°
2026-04-26 22:11 52.31021 -0.87579 16755 ft 427 kts 139°
2026-04-26 22:12 52.28860 -0.84262 15683 ft 425 kts 139°
2026-04-26 22:12 52.26740 -0.80999 14658 ft 413 kts 138°
2026-04-26 22:12 52.24673 -0.77814 13594 ft 404 kts 138°
2026-04-26 22:12 52.22656 -0.74709 12495 ft 393 kts 138°
2026-04-26 22:13 52.20835 -0.71686 11474 ft 383 kts 129°
2026-04-26 22:13 52.19489 -0.68014 10489 ft 374 kts 115°
2026-04-26 22:13 52.18415 -0.64254 9646 ft 358 kts 115°
2026-04-26 22:13 52.17385 -0.60648 8794 ft 346 kts 115°
2026-04-26 22:14 52.16386 -0.57156 7952 ft 334 kts 115°
2026-04-26 22:14 52.15423 -0.53805 7475 ft 316 kts 115°
2026-04-26 22:14 52.14509 -0.50633 7327 ft 306 kts 115°
2026-04-26 22:14 52.13622 -0.47546 7305 ft 301 kts 115°